This is the latest recevied weather packets stored in our database for station/object KT5AL. If no packets are shown the sender has not sent any weather packets the latest 10 day(s).
| Time | Temp. | Humidity | Pressure | Rain* | Wind** | Luminosity | Snow |
|---|---|---|---|---|---|---|---|
| 1777160403 | 27.22° C | 75% | 1001.9 hPa | 0 mm | - | - | - |
| 1777160106 | 27.22° C | 74% | 1002.2 hPa | 0 mm | - | - | - |
| 1777159803 | 27.22° C | 74% | 1002.2 hPa | 0 mm | - | - | - |
| 1777159506 | 27.22° C | 74% | 1001.6 hPa | 0 mm | - | - | - |
| 1777159203 | 27.78° C | 74% | 1001.6 hPa | 0 mm | - | - | - |
| 1777158906 | 27.78° C | 73% | 1001.6 hPa | 0 mm | - | - | - |
| 1777158608 | 27.78° C | 71% | 1001.6 hPa | 0 mm | - | - | - |
| 1777158308 | 28.33° C | 70% | 1000.9 hPa | 0 mm | - | - | - |
| 1777158005 | 28.33° C | 69% | 1000.9 hPa | 0 mm | - | - | - |
| 1777157708 | 28.33° C | 68% | 1000.5 hPa | 0 mm | - | - | - |
| 1777157405 | 28.33° C | 67% | 1000.5 hPa | 0 mm | - | - | - |
| 1777157108 | 28.89° C | 68% | 1000.2 hPa | 0 mm | - | - | - |
| 1777156808 | 28.89° C | 67% | 1000.2 hPa | 0 mm | - | - | - |
| 1777156505 | 29.44° C | 66% | 999.9 hPa | 0 mm | - | - | - |
| 1777156208 | 29.44° C | 66% | 999.9 hPa | 0 mm | - | - | - |
| 1777155905 | 29.44° C | 66% | 1000.2 hPa | 0 mm | - | - | - |
| 1777155608 | 29.44° C | 67% | 1000.2 hPa | 0 mm | - | - | - |
| 1777155305 | 30° C | 66% | 1000.2 hPa | 0 mm | - | - | - |
| 1777155008 | 30° C | 65% | 1000.2 hPa | 0 mm | - | - | - |
| 1777154705 | 30.56° C | 63% | 1000.2 hPa | 0 mm | - | - | - |
| 1777154408 | 30.56° C | 65% | 1000.2 hPa | 0 mm | - | - | - |
| 1777154104 | 30.56° C | 65% | 1000.5 hPa | 0 mm | - | - | - |
| 1777153827 | 30° C | 63% | 1000.5 hPa | 0 mm | - | - | - |
| 1777153504 | 30.56° C | 62% | 1000.2 hPa | 0 mm | - | - | - |
| 1777153207 | 30.56° C | 63% | 1000.2 hPa | 0 mm | - | - | - |
* Rain latest hour (hover to see other rain measurements)
** Current wind speed in m/s (hover to see current wind gust speed)